Regional Weather Roundup
Issued by NWS Cleveland, OH

Home | Current Version | Previous Version | Graphics & Text | Print | Product List | Glossary On
Versions: 1 2 3 4 5 6 7 8 9 10 11 12 13 14 15 16 17 18 19 20 21 22 23 24 25 26 27 28 29 30 31 32 33 34 35 36 37 38 39 40 41 42 43 44 45 46 47 48 49 50
000
ASUS41 KCLE 161900
RWRCLE
OHIO REGIONAL WEATHER ROUNDUP
NATIONAL WEATHER SERVICE WILMINGTON, OH
200 PM EST MON JAN 16 2017

NOTE: "FAIR" INDICATES FEW OR NO CLOUDS BELOW 12,000 FEET WITH NO
SIGNIFICANT WEATHER AND/OR OBSTRUCTIONS TO VISIBILITY.

OHZ001>008-015>018-024>027-034-035-043-044-162000-
   NORTHWEST OHIO

CITY           SKY/WX    TMP DP  RH WIND       PRES   REMARKS
DEFIANCE       CLOUDY    35  31  85 E9        30.23F FOG     WCI  28
FINDLAY        CLOUDY    37  33  85 E8        30.22F FOG
TOLEDO EXPRESS CLOUDY    35  31  85 E6        30.25F FOG
TOLEDO EXEC    CLOUDY    35  30  82 E3        30.26F HAZE
LIMA           CLOUDY    37  37 100 E7        30.21F FOG
$$

OHZ009>014-019>023-028>033-038-089-162000-
   NORTHEAST OHIO

CITY           SKY/WX    TMP DP  RH WIND       PRES   REMARKS
CLE-HOPKINS    CLOUDY    41  26  55 CALM      30.30S
CLE-LAKEFRONT  CLOUDY    34  28  79 NE8       30.27F WCI  27
CUY CO. ARPT   CLOUDY    41  25  52 S6        30.28F
LORAIN-ELYRIA  LGT RAIN  37  29  72 CALM      30.27F
ASHTABULA      PTSUNNY   37  24  59 CALM      30.28F
AKRON-CANTON   CLOUDY    40  28  62 CALM      30.25F
WOOSTER        NOT AVBL
MANSFIELD      CLOUDY    37  35  92 E3        30.23F FOG
YOUNGSTOWN     CLOUDY    37  16  42 E5        30.26F
$$

OHZ042-051>053-060>062-070>072-077>081-162000-
  SOUTHWEST OHIO

CITY           SKY/WX    TMP DP  RH WIND       PRES   REMARKS
CINC-COVINGTON CLOUDY    48  46  93 SE6       30.18F FOG
CINC-LUNKEN    CLOUDY    49  46  90 CALM      30.20F
HAMILTON       CLOUDY    49  44  83 E3        30.20F
DAYTON         NOT AVBL
WRIGHT-PAT AFB NOT AVBL
DAYTON GENERAL CLOUDY    48  44  86 S6        30.18F
WILMINGTON     CLOUDY    47  45  93 S5        30.20F
$$

OHZ036-037-039>041-045>050-054>059-063>069-073>076-082>088-162000-
  CENTRAL AND SOUTHEAST OHIO

CITY           SKY/WX    TMP DP  RH WIND       PRES   REMARKS
COLUMBUS       CLOUDY    46  39  76 SE6       30.22F
OSU AIRPORT    CLOUDY    44  40  85 SE5       30.22F
BOLTON FIELD   NOT AVBL
RICKENBACK AFB NOT AVBL
NEWARK         CLOUDY    45  39  79 SE5       30.22F
MARION         CLOUDY    39  36  89 CALM      30.23F FOG
LANCASTER      CLOUDY    47  40  76 E6        30.22F
ZANESVILLE     CLOUDY    44  39  82 CALM      30.24F
NEW PHILLY     CLOUDY    38  32  79 CALM      30.26F
$$




USA.gov is the U.S. government's official web portal to all federal, state and local government web resources and services.